Regional Weather Roundup
Issued by NWS

Home | Current Version | Previous Version | Graphics & Text | Print | Product List | Glossary On
Versions: 1 2 3 4 5 6 7 8 9 10 11 12 13 14 15 16 17 18 19 20 21 22 23 24 25 26 27 28 29 30 31 32 33 34 35 36 37 38 39 40 41 42 43 44 45 46 47 48 49 50
000
ASUS43 KLMK 231902
RWRKY
KENTUCKY REGIONAL WEATHER ROUNDUP
NATIONAL WEATHER SERVICE LOUISVILLE KY
300 PM EDT THU OCT 23 2014

NOTE "FAIR" INDICATES FEW OR NO CLOUDS BELOW 12,000 FEET
WITH NO SIGNIFICANT WEATHER AND/OR OBSTRUCTIONS TO VISIBILITY.

KYZ001>023-026-027-061>063-070>075-232000-
WESTERN AND SOUTH CENTRAL KENTUCKY

CITY           SKY/WX    TMP DP  RH WIND       PRES   REMARKS
PADUCAH        CLOUDY    61  44  53 CALM      30.16F
HENDERSON      PTSUNNY  N/A N/A N/A NE6       30.16F
OWENSBORO      MOSUNNY   61  42  49 NE5       30.17F
HOPKINSVILLE   PTSUNNY   61  42  49 N5        30.15F
BOWLING GREEN  SUNNY     63  42  46 CALM      30.16F
GLASGOW        NOT AVBL
$$

KYZ024-025-028>034-038-045-046-053-232000-
NORTH CENTRAL KENTUCKY

CITY           SKY/WX    TMP DP  RH WIND       PRES   REMARKS
LOUISVILLE/SDF PTSUNNY   61  41  47 SE7       30.16F
LOUISVILLE/LOU SUNNY     59  41  51 SE3       30.18F
FORT KNOX      SUNNY     60  40  48 VRB1      30.15F
$$

KYZ035>037-039>044-047>052-055>060-089>105-232000-
NORTHEAST KENTUCKY

CITY           SKY/WX    TMP DP  RH WIND       PRES   REMARKS
LEXINGTON      SUNNY     61  42  49 NW7       30.17F
COVINGTON      NOT AVBL
FRANKFORT      SUNNY     59  40  49 E5        30.17F
$$

KYZ054-064>069-076>088-106>120-232000-
SOUTHEAST KENTUCKY

CITY           SKY/WX    TMP DP  RH WIND       PRES   REMARKS
JACKSON        SUNNY     59  39  47 CALM      30.15F
LONDON         SUNNY     62  39  42 N8        30.14F
SOMERSET       SUNNY     59  39  47 CALM      30.16F
MIDDLESBORO    SUNNY     62  40  44 NW3       30.13F
MONTICELLO     CLEAR     62  43  49 VRB5      30.16F
$$




USA.gov is the U.S. government's official web portal to all federal, state and local government web resources and services.